This demonstration page uses our WeatherBlox Daily Observations layout. Learn more.

Left ArrowRight Arrow

Hourly Observations for January 19, 2016

Temp ( °F °C ) Dew Point ( °F °C ) Humidity (%) Winds ( mph kmh ) Pressure ( in mb ) Visibility ( mi km ) Precip ( " mm )
12:53 am 00:53 Clear 40 4.4 32 0 73 73 SE 7 11 30.08 1019 10 16 0.00 0.00
1:53 am 01:53 Clear 41 5 32 0 70 70 SSE 13 20 30.03 1017 10 16 0.00 0.00
2:53 am 02:53 Clear 37 2.8 31 -0.6 79 79 E 3 6 30.04 1017 10 16 0.00 0.00
3:53 am 03:53 Clear 38 3.3 33 0.6 83 83 SE 7 11 30.02 1017 10 16 0.00 0.00
4:53 am 04:53 Clear 38 3.3 33 0.6 83 83 Calm 30.01 1016 10 16 0.00 0.00
5:53 am 05:53 Clear 40 4.4 34 1.1 79 79 E 3 6 30.01 1016 10 16 0.00 0.00
6:53 am 06:53 Mostly Clear 41 5 35 1.7 79 79 Calm 30.02 1017 10 16 0.00 0.00
7:53 am 07:53 Sunny 40 4.4 35 1.7 83 83 N 5 7 30.04 1017 10 16 0.00 0.00
8:53 am 08:53 Sunny 40 4.4 36 2.2 86 86 N 6 9 30.06 1018 10 16 0.00 0.00
9:53 am 09:53 Sunny 43 6.1 36 2.2 76 76 NNE 5 7 30.07 1018 10 16 0.00 0.00
10:53 am 10:53 Sunny 51 10.6 37 2.8 59 59 Calm 30.06 1018 10 16 0.00 0.00
11:53 am 11:53 Sunny 60 15.6 34 1.1 38 38 WSW 7 11 30.05 1018 10 16 0.00 0.00
12:53 pm 12:53 Sunny 69 20.6 32 0 25 25 N 7 11 30.03 1017 10 16 0.00 0.00
1:53 pm 13:53 Sunny 72 22.2 20 -6.7 14 14 NNW 16 26 29.99 1016 10 16 0.00 0.00
2:53 pm 14:53 Sunny 71 21.7 19 -7.2 14 14 NW 10 17 29.99 1016 10 16 0.00 0.00
3:53 pm 15:53 Sunny 71 21.7 20 -6.7 14 14 NNW 10 17 29.99 1016 10 16 0.00 0.00
4:53 pm 16:53 Sunny 70 21.1 21 -6.1 16 16 N 14 22 30.01 1016 10 16 0.00 0.00
5:53 pm 17:53 Sunny 67 19.4 23 -5 19 19 N 9 15 30.03 1017 10 16 0.00 0.00
6:53 pm 18:53 Clear 54 12.2 25 -3.9 33 33 NNE 10 17 30.08 1019 10 16 0.00 0.00
7:53 pm 19:53 Clear 54 12.2 25 -3.9 33 33 NE 14 22 30.09 1019 10 16 0.00 0.00
8:53 pm 20:53 Clear 52 11.1 26 -3.3 37 37 ENE 10 17 30.11 1020 10 16 0.00 0.00
9:53 pm 21:53 Clear 51 10.6 29 -1.7 43 43 ENE 10 17 30.11 1020 10 16 0.00 0.00
10:53 pm 22:53 Clear 46 7.8 30 -1.1 54 54 NNE 6 9 30.13 1020 10 16 0.00 0.00
11:53 pm 23:53 Clear 45 7.2 30 -1.1 56 56 Calm 30.14 1021 10 16 0.00 0.00

Powered by AerisWeather